This is the latest recevied weather packets stored in our database for station/object ED1ZAI-13. If no packets are shown the sender has not sent any weather packets the latest 10 day(s).
| Time | Temp. | Humidity | Pressure | Rain* | Wind** | Luminosity | Snow |
|---|---|---|---|---|---|---|---|
| 1788269515 | 35° C | 19% | 1019.1 hPa | - | - | - | - |
| 1788268915 | 30.56° C | 25% | 1019.3 hPa | - | - | - | - |
| 1788268315 | 32.78° C | 24% | 1019.3 hPa | - | - | - | - |
| 1788267714 | 30.56° C | 27% | 1019.4 hPa | - | - | - | - |
| 1788267116 | 31.11° C | 26% | 1019.4 hPa | - | - | - | - |
| 1788266516 | 32.22° C | 27% | 1019.5 hPa | - | - | - | - |
| 1788265916 | 32.78° C | 25% | 1019.7 hPa | - | - | - | - |
| 1788265315 | 32.78° C | 24% | 1019.8 hPa | - | - | - | - |
| 1788264715 | 29.44° C | 30% | 1019.9 hPa | - | - | - | - |
| 1788264115 | 30° C | 29% | 1020 hPa | - | - | - | - |
| 1788263372 | 29.44° C | 30% | 1020.1 hPa | - | - | - | - |
| 1788262774 | 30° C | 29% | 1020.2 hPa | - | - | - | - |
| 1788262174 | 31.11° C | 29% | 1020.1 hPa | - | - | - | - |
| 1788261573 | 30° C | 31% | 1020.2 hPa | - | - | - | - |
| 1788260973 | 28.89° C | 31% | 1020.2 hPa | - | - | - | - |
| 1788260373 | 27.78° C | 34% | 1019.9 hPa | - | - | - | - |
| 1788259773 | 28.89° C | 35% | 1019.6 hPa | - | - | - | - |
| 1788259172 | 26.11° C | 37% | 1019.1 hPa | - | - | - | - |
| 1788258574 | 27.78° C | 36% | 1019.4 hPa | - | - | - | - |
| 1788257974 | 27.22° C | 35% | 1019.9 hPa | - | - | - | - |
| 1788257374 | 26.67° C | 38% | 1019 hPa | - | - | - | - |
| 1788256773 | 27.22° C | 38% | 1019.2 hPa | - | - | - | - |
| 1788256173 | 24.44° C | 43% | 1016.4 hPa | - | - | - | - |
| 1788255573 | 26.67° C | 39% | 1018.5 hPa | - | - | - | - |
| 1788254972 | 25° C | 45% | 1016.4 hPa | - | - | - | - |
* Rain since midnight (hover to see other rain measurements)
** Current wind speed in m/s (hover to see current wind gust speed)